| time (UTC) | temp F | wind direction | speed MPH | gust MPH | rain 1hr in | rain 24hr in | rain mn in | humidity % | barometer mb |
| 20260904161555 | 82 | 8 | 2.0 | 5.0 | 0.00 | 0.00 | 0.00 | 62 | 1007.1 |
| 20260904160053 | 81 | 358 | 1.0 | 6.0 | 0.00 | 0.00 | 0.00 | 65 | 1007.3 |
| 20260904154557 | 81 | 350 | 1.0 | 7.0 | 0.00 | 0.00 | 0.00 | 64 | 1007.2 |
| 20260904153151 | 81 | 353 | 2.0 | 8.0 | 0.00 | 0.00 | 0.00 | 67 | 1007.3 |
| 20260904151548 | 81 | 359 | 2.0 | 8.0 | 0.00 | 0.00 | 0.00 | 65 | 1007.3 |
| 20260904150046 | 80 | 5 | 3.0 | 7.0 | 0.00 | 0.00 | 0.00 | 67 | 1007.5 |
| 20260904144546 | 80 | 360 | 3.0 | 8.0 | 0.00 | 0.00 | 0.00 | 65 | 1007.5 |
| 20260904143043 | 80 | 12 | 4.0 | 10.0 | 0.00 | 0.00 | 0.00 | 64 | 1007.6 |
| 20260904141612 | 79 | 356 | 5.0 | 12.0 | 0.00 | 0.00 | 0.00 | 63 | 1007.6 |
| 20260904140045 | 79 | 8 | 1.0 | 5.0 | 0.00 | 0.00 | 0.00 | 69 | 1007.6 |
| 20260904134535 | 78 | 8 | 1.0 | 5.0 | 0.00 | 0.01 | 0.00 | 74 | 1007.6 |
| 20260904133032 | 77 | 358 | 0.0 | 3.0 | 0.00 | 0.01 | 0.00 | 78 | 1007.8 |
| 20260904131529 | 77 | 22 | 0.0 | 0.0 | 0.00 | 0.01 | 0.00 | 82 | 1007.9 |
| 20260904130027 | 76 | 2 | 0.0 | 0.0 | 0.00 | 0.01 | 0.00 | 82 | 1007.9 |
| 20260904124524 | 75 | 198 | 0.0 | 0.0 | 0.00 | 0.01 | 0.00 | 85 | 1008.0 |
| 20260904123020 | 74 | 7 | 0.0 | 0.0 | 0.00 | 0.01 | 0.00 | 90 | 1008.1 |
| 20260904121518 | 73 | 7 | 0.0 | 0.0 | 0.00 | 0.01 | 0.00 | 93 | 1008.2 |
| 20260904120013 | 73 | 7 | 0.0 | 0.0 | 0.00 | 0.01 | 0.00 | 94 | 1008.1 |
| 20260904114511 | 72 | 6 | 0.0 | 0.0 | 0.00 | 0.01 | 0.00 | 95 | 1008.2 |
| 20260904113027 | 72 | 7 | 0.0 | 0.0 | 0.00 | 0.01 | 0.00 | 96 | 1008.2 |
| 20260904111521 | 71 | 7 | 0.0 | 0.0 | 0.00 | 0.01 | 0.00 | 97 | 1008.0 |
| 20260904110010 | 71 | 7 | 0.0 | 0.0 | 0.00 | 0.02 | 0.00 | 96 | 1008.1 |
| 20260904104509 | 71 | 7 | 0.0 | 0.0 | 0.00 | 0.02 | 0.00 | 96 | 1008.2 |
| 20260904103009 | 71 | 7 | 0.0 | 0.0 | 0.00 | 0.02 | 0.00 | 96 | 1008.0 |
| 20260904101508 | 71 | 7 | 0.0 | 0.0 | 0.00 | 0.02 | 0.00 | 96 | 1008.0 |
| 20260904100007 | 71 | 7 | 0.0 | 0.0 | 0.00 | 0.03 | 0.00 | 96 | 1007.9 |
| 20260904094506 | 71 | 7 | 0.0 | 0.0 | 0.00 | 0.03 | 0.00 | 96 | 1007.7 |
| 20260904093005 | 71 | 7 | 0.0 | 0.0 | 0.00 | 0.03 | 0.00 | 96 | 1007.6 |
| 20260904091503 | 71 | 7 | 0.0 | 0.0 | 0.00 | 0.03 | 0.00 | 96 | 1007.6 |
| 20260904090002 | 71 | 7 | 0.0 | 0.0 | 0.00 | 0.18 | 0.00 | 96 | 1007.7 |
| 20260904084501 | 71 | 7 | 0.0 | 0.0 | 0.00 | 0.18 | 0.00 | 96 | 1007.7 |
| 20260904083100 | 71 | 7 | 0.0 | 0.0 | 0.00 | 0.18 | 0.00 | 96 | 1007.7 |
| 20260904081558 | 71 | 7 | 0.0 | 0.0 | 0.00 | 0.18 | 0.00 | 95 | 1007.6 |
| 20260904080057 | 72 | 7 | 0.0 | 0.0 | 0.00 | 0.18 | 0.00 | 95 | 1007.6 |
| 20260904074555 | 72 | 7 | 0.0 | 0.0 | 0.00 | 0.18 | 0.00 | 94 | 1007.6 |
| 20260904073054 | 72 | 7 | 0.0 | 0.0 | 0.00 | 0.18 | 0.00 | 94 | 1007.7 |
| 20260904071548 | 73 | 6 | 0.0 | 0.0 | 0.00 | 0.18 | 0.00 | 93 | 1008.1 |
| 20260904070047 | 73 | 7 | 0.0 | 0.0 | 0.00 | 0.18 | 0.00 | 94 | 1008.2 |
| 20260904064549 | 73 | 7 | 0.0 | 0.0 | 0.00 | 0.18 | 0.00 | 94 | 1008.3 |
| 20260904063043 | 72 | 6 | 0.0 | 0.0 | 0.00 | 0.18 | 0.00 | 94 | 1008.4 |
| 20260904061548 | 72 | 7 | 0.0 | 0.0 | 0.00 | 0.18 | 0.00 | 94 | 1008.5 |
| 20260904060040 | 72 | 7 | 0.0 | 0.0 | 0.00 | 0.18 | 0.00 | 94 | 1008.6 |
| 20260904054538 | 72 | 6 | 0.0 | 2.0 | 0.00 | 0.18 | 0.00 | 94 | 1008.6 |
| 20260904053036 | 72 | 338 | 0.0 | 1.0 | 0.00 | 0.18 | 0.00 | 94 | 1008.7 |
| 20260904051535 | 72 | 10 | 0.0 | 0.0 | 0.00 | 0.18 | 0.00 | 94 | 1009.0 |
| 20260904050032 | 72 | 8 | 0.0 | 1.0 | 0.00 | 0.18 | 0.00 | 94 | 1009.0 |
| 20260904044539 | 73 | 9 | 0.0 | 0.0 | 0.00 | 0.18 | 0.00 | 94 | 1009.0 |
| 20260904043025 | 73 | 9 | 0.0 | 1.0 | 0.00 | 0.18 | 0.00 | 94 | 1009.3 |
| 20260904041532 | 73 | 114 | 0.0 | 0.0 | 0.00 | 0.18 | 0.00 | 94 | 1009.4 |
| 20260904040116 | 73 | 228 | 0.0 | 1.0 | 0.00 | 0.18 | 0.00 | 94 | 1009.4 |
| 20260904034515 | 73 | 360 | 0.0 | 0.0 | 0.00 | 0.18 | 0.18 | 93 | 1009.4 |
| 20260904033015 | 73 | 2 | 0.0 | 0.0 | 0.00 | 0.18 | 0.18 | 93 | 1009.4 |
| 20260904031514 | 73 | 359 | 0.0 | 0.0 | 0.00 | 0.18 | 0.18 | 93 | 1009.5 |
| 20260904030014 | 73 | 359 | 0.0 | 0.0 | 0.00 | 0.18 | 0.18 | 93 | 1009.4 |
| 20260904024514 | 73 | 359 | 0.0 | 0.0 | 0.00 | 0.18 | 0.18 | 92 | 1009.6 |
| 20260904023013 | 74 | 358 | 0.0 | 0.0 | 0.00 | 0.18 | 0.18 | 92 | 1009.8 |
| 20260904021515 | 74 | 358 | 0.0 | 0.0 | 0.00 | 0.18 | 0.18 | 92 | 1009.8 |
| 20260904020012 | 74 | 358 | 0.0 | 0.0 | 0.00 | 0.18 | 0.18 | 92 | 1009.9 |
| 20260904014512 | 74 | 358 | 0.0 | 1.0 | 0.00 | 0.18 | 0.18 | 91 | 1010.1 |
| 20260904013011 | 74 | 358 | 0.0 | 0.0 | 0.00 | 0.18 | 0.18 | 90 | 1010.3 |
| 20260904011510 | 75 | 358 | 0.0 | 0.0 | 0.00 | 0.18 | 0.18 | 91 | 1010.4 |
| 20260904010010 | 75 | 359 | 0.0 | 0.0 | 0.00 | 0.18 | 0.18 | 90 | 1010.2 |
| 20260904004510 | 75 | 359 | 0.0 | 0.0 | 0.00 | 0.18 | 0.18 | 90 | 1010.0 |
| 20260904003009 | 75 | 359 | 0.0 | 0.0 | 0.00 | 0.18 | 0.18 | 90 | 1010.0 |
| 20260904001509 | 75 | 359 | 0.0 | 0.0 | 0.00 | 0.18 | 0.18 | 89 | 1009.8 |
| 20260904000007 | 76 | 359 | 0.0 | 0.0 | 0.00 | 0.18 | 0.18 | 88 | 1009.4 |
| 20260903234509 | 76 | 359 | 0.0 | 0.0 | 0.00 | 0.18 | 0.18 | 87 | 1009.4 |
| 20260903233008 | 77 | 359 | 0.0 | 0.0 | 0.00 | 0.18 | 0.18 | 86 | 1009.3 |
| 20260903231505 | 78 | 359 | 0.0 | 0.0 | 0.00 | 0.18 | 0.18 | 85 | 1009.2 |
| 20260903230003 | 79 | 359 | 0.0 | 0.0 | 0.00 | 0.18 | 0.18 | 83 | 1009.0 |
| 20260903224502 | 79 | 359 | 0.0 | 0.0 | 0.00 | 0.18 | 0.18 | 81 | 1009.2 |
| 20260903223114 | 80 | 359 | 0.0 | 0.0 | 0.00 | 0.18 | 0.18 | 80 | 1009.3 |
| 20260903221559 | 80 | 359 | 0.0 | 0.0 | 0.00 | 0.18 | 0.18 | 79 | 1009.5 |
| 20260903220107 | 81 | 2 | 0.0 | 2.0 | 0.00 | 0.18 | 0.18 | 78 | 1009.4 |
| 20260903214559 | 81 | 342 | 0.0 | 1.0 | 0.00 | 0.18 | 0.18 | 76 | 1009.3 |
| 20260903213058 | 81 | 10 | 0.0 | 2.0 | 0.00 | 0.18 | 0.18 | 78 | 1009.2 |
| 20260903211610 | 81 | 344 | 0.0 | 2.0 | 0.00 | 0.18 | 0.18 | 76 | 1009.4 |
| 20260903210057 | 82 | 200 | 0.0 | 2.0 | 0.00 | 0.18 | 0.18 | 76 | 1009.3 |
| 20260903204602 | 82 | 189 | 0.0 | 1.0 | 0.00 | 0.18 | 0.18 | 75 | 1009.3 |
| 20260903203055 | 82 | 202 | 0.0 | 0.0 | 0.00 | 0.18 | 0.18 | 78 | 1009.3 |
| 20260903201553 | 83 | 191 | 0.0 | 1.0 | 0.00 | 0.18 | 0.18 | 75 | 1009.6 |
| 20260903200054 | 83 | 169 | 0.0 | 0.0 | 0.00 | 0.18 | 0.18 | 75 | 1009.7 |
| 20260903194553 | 84 | 172 | 0.0 | 1.0 | 0.00 | 0.18 | 0.18 | 73 | 1009.8 |
| 20260903193050 | 83 | 188 | 0.0 | 1.0 | 0.00 | 0.18 | 0.18 | 74 | 1009.9 |
| 20260903191556 | 82 | 15 | 0.0 | 5.0 | 0.00 | 0.18 | 0.18 | 76 | 1010.1 |
| 20260903190045 | 82 | 176 | 0.0 | 2.0 | 0.00 | 0.18 | 0.18 | 76 | 1010.1 |
| 20260903184542 | 81 | 200 | 0.0 | 2.0 | 0.00 | 0.18 | 0.18 | 77 | 1010.4 |
| 20260903183101 | 80 | 173 | 0.0 | 2.0 | 0.00 | 0.18 | 0.18 | 77 | 1010.5 |
| 20260903181538 | 81 | 12 | 0.0 | 3.0 | 0.00 | 0.18 | 0.18 | 77 | 1010.5 |
| 20260903180039 | 81 | 355 | 0.0 | 4.0 | 0.00 | 0.18 | 0.18 | 79 | 1010.6 |
| 20260903174537 | 80 | 22 | 0.0 | 2.0 | 0.00 | 0.18 | 0.18 | 79 | 1010.6 |
| 20260903173037 | 80 | 355 | 0.0 | 3.0 | 0.00 | 0.18 | 0.18 | 80 | 1010.6 |
| 20260903171534 | 81 | 79 | 0.0 | 3.0 | 0.00 | 0.18 | 0.18 | 78 | 1010.7 |
| 20260903170033 | 80 | 335 | 0.0 | 4.0 | 0.00 | 0.18 | 0.18 | 80 | 1011.0 |
| 20260903164529 | 81 | 207 | 0.0 | 2.0 | 0.00 | 0.18 | 0.18 | 82 | 1010.8 |
| 20260903163026 | 79 | 204 | 0.0 | 3.0 | 0.00 | 0.18 | 0.18 | 86 | 1010.8 |